SL-14 DEB, 45285

Orbit data source: Space-Track

SL-14 DEB, 45285 is space debris in LEO originally from a launch on Thu, 15 Aug 1991 UTC launched from the Plesetsk Missile And Space Complex (PKMTR). Debris objects in space refer to the collection of defunct objects orbiting the Earth. Examples of debris include non-operational satellites, rocket bodies, and fragments generated from explosions, collisions, or faulty payload assembly.

Loading next visibility...
Identifier
45285, 1991-056X
Orbit
LEO
Country
Flag of CISCIS
Related business
Manufacturer
Unknown
Mission
Spacecraft
Bus & Motor
Unknown
Mass
Unknown
Launch date (UTC)
1991-08-15 (35 years ago)
Launch vehicle
Unknown
Launch site
Plesetsk Missile And Space Complex (PKMTR)
Object type
Payload
Rocket body
Debris
Shape & HBR
Unknown shape, 0.1 m
Radar Cross Section
Small (<0.1 m²)

Expand to show TLE details & history
Last TLE update: 7 hours ago

TLE from 7 hours ago
0 SL-14 DEB
1 45285U 91056X   26168.08352669 -.00000231  00000-0 -77883-3 0  9991
2 45285  82.5662 190.7133 0115307  67.9255 293.4055 13.00674591300692
Epoch: 2026-06-17T02:00Z
TLE epoch observation values (Epoch: 2026-06-17T02:00:16.706Z)
Latitude
-0.00003°
Longitude
-104.70261°
Altitude
1,228.105 km
Speed
7.257 km/s
True Right ascension
12h 42m 51s
True Declination
0° 00' 00"
Sunlit
Object was in daylight at epoch
Visualization orbit readout
Latitude
Unknown
Longitude
Unknown
Altitude
Unknown
Speed
Unknown
Apparent Right ascension
Unknown
Apparent Declination
Unknown
Sunlit
N/A
Visualization observer readout
Local Sidereal Time
20:07:10
Azimuth
Unknown
Elevation
Unknown
Doppler factor
Unknown
Orbital elements
Apogee altitude
1,344.75 km
Perigee altitude
1,168.68 km
Semi-major axis
7,634.852 km
Eccentricity
0.01153
Inclination
82.5662°
RAAN
190.7133°
Arg. of periapsis
67.9255°
True anomaly
292.18601°
Mean anomaly
293.4055°
Eccentric anomaly
292.79645°
Mean motion
3.25344 °/min
Orbital period
110.65 mins
BSTAR
-0.00077883
Loading maneuver chart data...
Computing Atmospheric mass density...
Loading historical data...
Loading historical data...
Loading historical data...
Loading historical data...
Loading historical data...
Loading historical data...
Loading historical data...

Documentation

Showing up to 5 results
|